Date,TemperatureHighF,TemperatureAvgF,TemperatureLowF,DewpointHighF,DewpointAvgF,DewpointLowF,HumidityHigh,HumidityAvg,HumidityLow,PressureMaxIn,PressureMinIn,WindSpeedMaxMPH,WindSpeedAvgMPH,GustSpeedMaxMPH,PrecipitationSumIn
2013-8-1,88.3,78.8,72.0,76.7,73.7,70.9,97,85,65,29.97,29.84,11,2,14,0.02
2013-8-2,89.3,79.0,71.6,76.8,73.6,70.3,98,85,59,29.99,29.87,5,1,9,0.01
2013-8-3,88.6,80.7,72.6,75.9,73.2,71.1,97,80,57,30.00,29.92,6,1,11,0.00
2013-8-4,91.0,80.7,74.2,77.8,73.7,71.4,95,81,57,29.96,29.87,9,1,11,0.05
2013-8-5,89.0,79.8,71.6,75.6,72.1,68.7,96,79,56,30.01,29.92,12,2,15,0.00
2013-8-6,87.3,78.1,73.1,77.1,72.3,68.0,96,83,67,30.01,29.91,10,3,12,0.19
2013-8-7,88.2,77.0,72.1,75.1,73.1,70.8,97,89,62,30.03,29.95,9,2,13,0.06
2013-8-8,91.0,79.3,71.9,78.2,73.8,70.7,97,85,56,30.03,29.95,5,0,8,0.00
2013-8-9,91.1,81.6,73.5,78.6,74.9,72.0,96,81,57,30.06,29.96,10,3,12,0.00
2013-8-10,93.2,82.2,75.1,76.7,74.5,69.9,95,79,52,30.09,30.00,14,3,18,0.04
2013-8-11,92.2,82.0,72.4,77.2,74.3,71.1,97,79,54,30.11,30.01,9,2,12,0.01
2013-8-12,92.1,81.5,72.6,78.8,74.7,70.8,95,81,57,30.05,29.92,8,1,11,0.00
2013-8-13,89.7,81.2,73.1,76.7,73.9,71.2,94,80,58,29.96,29.80,11,2,19,0.00
2013-8-14,80.3,75.8,72.4,74.1,71.2,67.6,96,86,69,29.99,29.82,8,0,10,0.00
2013-8-15,72.3,69.7,66.8,68.5,64.8,61.9,95,85,74,30.07,29.97,6,0,7,0.09
2013-8-16,69.0,64.2,62.3,64.2,62.5,61.0,97,94,81,30.10,30.01,6,2,11,2.52
2013-8-17,67.8,65.0,62.3,66.9,64.3,61.4,98,97,97,30.12,30.05,6,0,7,2.62
2013-8-18,80.2,72.1,67.3,74.4,69.9,66.7,99,93,78,30.17,30.07,13,1,15,0.69
2013-8-19,79.3,72.5,69.1,74.6,70.9,68.3,98,95,82,30.15,30.02,5,0,6,0.60
2013-8-20,81.8,75.2,71.5,75.1,72.6,70.4,98,92,78,30.14,30.05,4,0,7,0.01
2013-8-21,87.0,75.9,71.2,76.9,72.7,70.0,98,91,68,30.19,30.08,8,1,16,0.03
2013-8-22,89.6,78.8,68.8,77.9,73.1,67.9,98,84,60,30.14,29.98,6,0,10,0.00
2013-8-23,91.2,79.0,70.4,77.0,72.8,69.3,97,83,57,30.03,29.92,6,0,8,0.00
2013-8-24,80.5,73.3,69.8,71.8,68.7,66.1,95,86,69,30.22,29.99,8,1,11,0.00
2013-8-25,82.5,72.1,61.3,66.2,62.9,59.6,97,75,47,30.32,30.21,7,0,10,0.00
2013-8-26,83.7,69.5,56.7,67.1,61.7,55.2,97,79,49,30.27,30.10,9,0,10,0.00
2013-8-27,88.3,74.5,61.8,73.7,66.1,59.5,93,77,52,30.13,29.98,6,0,6,0.00
2013-8-28,90.0,78.2,67.6,74.2,69.9,65.3,94,77,52,30.01,29.92,6,1,12,0.00
2013-8-29,93.5,81.1,70.9,78.4,73.6,69.1,95,79,55,29.94,29.84,6,0,8,0.00
2013-8-30,86.1,79.1,74.0,76.5,73.8,72.2,94,84,67,30.00,29.89,7,0,9,0.00
2013-8-31,89.3,79.1,70.5,77.1,73.8,69.0,97,85,62,29.95,29.83,7,1,17,0.00